Wind_Speed
21 21 21 21 21 22 22 22 23 25 26 27 27 26 25 25 25 25 24 24 24 24 24 24 24 24 24 23 24 25 27 28 28 29 30 31 32 33 32 32 32 31
21 21 20 21 21 22 22 23 24 26 27 28 27 26 26 26 26 25 24 25 25 25 25 25 25 25 24 24 25 26 28 29 30 30 31 32 33 33 33 33 32 31
22 21 21 22 22 22 23 24 25 26 28 28 27 26 26 27 26 26 25 25 26 26 26 25 25 25 26 26 26 27 29 30 31 32 33 33 33 34 33 33 33 33
23 23 23 23 24 24 25 25 26 27 27 28 27 26 26 27 28 27 26 26 26 27 26 26 25 26 26 26 27 28 29 31 32 34 35 34 34 35 34 34 34 34
25 24 24 25 25 25 26 27 27 26 27 28 28 27 27 28 29 29 28 27 27 27 27 26 26 26 27 27 27 29 31 32 34 35 36 36 36 36 36 35 36 36
27 26 26 27 27 27 27 28 28 27 27 27 28 28 28 29 30 29 28 27 27 27 27 27 27 27 27 27 28 30 32 34 36 37 37 37 37 37 37 37 37 37
28 28 29 29 29 28 29 29 28 28 28 27 28 29 29 30 30 29 28 27 28 28 28 28 28 28 28 27 28 30 33 35 37 38 39 40 40 40 39 39 40 39
30 30 30 30 30 30 31 30 30 30 29 28 28 30 30 30 30 29 28 28 29 29 29 30 30 30 29 28 29 31 33 35 38 41 42 42 41 40 40 40 40 40
31 31 31 31 31 32 33 32 31 32 30 28 29 31 31 31 30 29 28 29 30 29 30 31 31 31 30 29 31 33 34 36 38 40 40 38 37 37 38 40 40 39
32 32 32 32 32 33 35 35 34 33 31 29 30 31 31 31 30 29 30 30 29 29 30 31 32 31 30 30 31 33 34 36 38 39 38 37 36 37 38 39 39 38
33 32 32 33 34 34 36 37 36 35 32 30 30 31 31 31 29 29 30 30 29 30 31 32 32 31 29 30 31 31 32 35 38 40 40 38 36 36 37 37 37 36
35 34 33 34 35 35 36 37 37 36 33 30 29 30 31 30 30 31 31 30 31 31 32 33 33 31 30 30 30 30 32 35 38 39 37 34 33 34 36 38 38 36
38 40 37 35 34 35 36 36 36 36 32 29 30 30 30 32 33 31 30 31 32 33 33 34 33 32 31 30 30 30 32 35 36 36 35 34 35 38 40 40 39 37
44 43 39 35 35 35 35 34 35 34 32 30 31 31 32 33 33 31 30 32 33 34 34 34 34 33 32 32 32 32 33 35 36 35 35 36 38 40 40 38 37 36
45 41 37 36 37 36 35 34 33 33 32 32 31 32 33 33 32 31 32 34 35 35 35 34 34 33 33 34 35 35 36 37 37 38 39 40 40 40 38 36 34 34
44 41 38 37 37 38 39 38 36 35 35 33 32 32 33 32 32 31 32 35 36 36 36 35 34 33 33 34 35 37 38 39 40 42 44 44 44 42 41 39 35 33
45 44 40 39 40 41 43 42 39 37 36 33 31 32 32 31 31 31 33 36 37 37 37 37 36 35 34 35 36 38 39 39 42 45 47 47 45 44 44 42 37 34
45 43 41 43 42 41 42 42 40 38 35 32 31 32 32 31 31 32 35 37 37 38 39 38 37 36 35 36 37 37 37 39 44 47 48 48 46 46 46 43 37 33
44 42 42 42 40 39 40 41 40 38 34 32 31 32 31 30 31 35 37 37 37 39 39 38 37 37 36 36 36 35 37 40 45 48 49 49 48 48 47 43 37 34
42 40 40 40 41 43 42 41 42 42 42 39 36 33 30 30 34 37 38 38 38 39 39 39 37 37 35 35 35 35 38 43 46 48 50 50 49 48 47 44 40 38
41 39 40 42 44 46 47 48 48 46 45 40 34 30 31 34 37 39 40 40 39 39 40 39 37 36 35 34 35 38 42 45 47 49 51 51 49 49 48 45 42 40
43 43 45 47 47 47 48 48 45 39 33 29 28 30 33 36 39 40 41 41 39 41 41 39 37 36 35 35 38 42 45 47 48 50 51 50 48 49 48 47 45 44
45 44 46 48 48 46 45 42 39 36 32 31 34 35 35 36 39 42 42 41 40 41 41 38 36 36 36 39 42 46 48 49 50 51 50 47 47 49 50 51 49 46
44 43 43 44 42 43 44 41 38 37 37 36 36 35 34 36 39 41 43 42 42 41 39 36 35 36 39 42 45 47 48 49 51 51 48 46 47 49 52 51 47 43
44 42 41 39 38 42 44 41 37 35 34 33 32 31 32 35 36 38 41 42 42 40 37 35 35 37 41 44 46 48 49 50 51 49 46 46 48 49 49 45 42 44
44 42 40 38 38 40 41 40 37 32 29 27 27 28 29 30 32 36 39 40 39 37 35 35 35 38 43 46 46 48 50 51 50 48 46 47 49 49 47 43 41 44
Wind_Direction
294 293 290 287 288 291 293 294 296 297 297 298 299 301 303 305 306 306 306 307 308 308 309 311 313 314 317 320 320 319 316 314 313 312 312 313 315 318 321 321 320 318
290 289 287 285 286 290 293 294 295 295 295 296 298 300 302 303 304 304 304 304 306 309 311 313 314 315 317 319 320 318 315 313 312 312 312 313 316 318 319 320 319 317
286 284 283 282 284 287 291 293 293 293 293 294 296 298 300 300 300 300 300 300 304 309 312 312 314 316 317 319 319 317 314 313 313 313 312 313 315 316 317 318 317 317
284 284 283 282 283 286 288 290 291 291 292 293 295 297 298 298 298 298 297 298 303 307 309 311 313 316 317 318 318 316 314 314 314 313 312 313 315 315 316 317 317 316
285 285 284 283 284 286 288 288 289 290 291 292 294 297 298 298 297 297 296 297 302 306 308 311 313 316 317 317 317 316 315 315 314 312 312 313 313 313 314 316 316 315
286 286 285 285 285 285 286 288 289 289 289 291 294 297 297 297 297 298 297 298 302 306 309 311 313 315 315 316 317 317 317 315 313 312 311 311 311 312 313 314 314 313
286 286 286 286 286 285 286 288 289 288 289 292 295 296 296 296 296 297 296 298 303 307 309 311 312 313 313 316 319 318 315 313 311 311 310 309 310 311 311 312 311 310
286 287 287 286 287 287 287 288 289 289 290 293 295 295 294 294 295 296 295 299 304 307 309 310 310 310 313 318 320 317 315 313 312 312 311 310 310 310 311 311 309 308
290 289 287 287 288 288 287 286 287 289 292 294 293 293 294 294 294 294 295 300 306 307 307 307 308 310 315 319 320 319 318 317 315 315 316 316 315 315 316 314 311 308
293 290 287 285 286 286 284 283 286 289 291 291 292 293 293 292 293 293 295 302 306 305 304 305 307 312 317 320 320 319 318 316 316 317 317 317 317 319 321 320 316 310
293 290 287 282 280 280 280 281 284 287 289 291 292 292 291 290 292 293 296 302 303 302 303 305 308 314 317 318 318 317 316 316 317 317 315 315 316 319 323 325 322 314
293 289 283 277 275 275 277 279 282 286 290 292 291 289 287 289 291 292 296 301 301 300 303 305 309 314 315 315 315 313 314 317 319 319 317 315 314 317 321 323 321 315
292 283 275 270 270 273 274 276 281 287 291 292 289 286 286 289 290 292 298 301 299 300 303 305 309 312 313 313 310 308 312 319 322 321 318 314 311 313 315 315 314 313
284 276 269 264 267 272 272 274 281 286 289 290 289 288 288 290 292 295 299 300 299 300 303 305 308 310 310 310 307 304 308 316 321 320 317 314 311 311 314 314 310 308
279 275 272 269 272 275 272 274 280 282 283 287 288 288 289 290 293 296 298 298 299 300 303 305 306 307 307 307 305 303 305 310 317 320 319 318 317 316 319 319 313 306
283 283 281 275 274 274 271 274 279 278 280 283 283 285 288 291 294 295 296 296 297 300 302 303 303 304 304 303 303 303 302 306 314 320 321 322 322 321 323 324 318 306
289 288 285 277 271 271 273 277 278 277 280 281 279 282 287 292 294 292 292 293 295 298 300 301 302 303 304 304 304 302 302 305 313 318 320 321 322 322 323 324 320 308
294 287 283 278 273 274 277 277 276 278 279 278 277 281 285 289 289 288 289 291 293 297 299 299 302 304 305 306 304 303 303 307 313 316 318 320 321 321 321 322 319 309
299 290 285 283 280 280 280 278 275 276 275 275 279 282 282 284 285 286 288 289 291 294 297 299 301 303 305 304 303 304 306 310 314 315 317 320 320 320 320 321 319 311
303 296 291 288 283 283 284 281 278 278 276 276 280 283 282 284 286 286 287 287 289 292 295 297 300 302 303 302 303 307 310 313 315 316 317 319 319 318 319 320 319 314
305 302 298 295 291 288 285 280 281 284 280 276 278 282 284 287 288 288 288 288 289 291 294 296 299 302 302 302 305 309 312 314 316 316 317 318 317 317 318 318 317 314
304 304 302 301 297 291 284 279 280 281 276 277 287 290 289 290 291 290 290 289 290 292 293 296 301 304 304 305 308 311 313 315 315 315 316 316 316 317 317 316 315 313
304 305 306 304 299 291 284 279 278 275 271 281 296 296 291 291 292 291 291 291 291 292 293 296 301 304 305 307 310 311 313 314 314 314 314 314 316 317 316 316 316 313
303 304 305 305 301 293 285 278 277 276 275 283 291 291 288 290 291 292 293 292 291 290 292 296 300 303 306 309 310 312 312 312 312 313 313 314 315 316 317 317 314 307
303 304 303 303 302 298 291 281 276 277 278 280 284 285 288 291 291 292 293 292 290 290 292 295 299 303 307 309 310 310 309 310 311 312 312 313 314 315 317 315 306 298
302 302 301 300 300 298 291 282 278 276 272 272 279 287 292 294 295 294 292 290 290 289 290 293 297 302 306 308 308 307 308 311 312 311 310 312 313 313 314 310 300 293
Height
5898 5898 5897 5896 5896 5895 5894 5894 5893 5892 5891 5890 5889 5888 5887 5886 5885 5884 5883 5882 5881 5880 5879 5878 5877 5876 5875 5874 5874 5873 5872 5871 5869 5868 5866 5865 5863 5861 5859 5858 5856 5854
5896 5895 5895 5894 5893 5892 5892 5891 5890 5889 5888 5887 5886 5885 5884 5883 5882 5881 5880 5879 5878 5877 5876 5876 5875 5874 5873 5872 5871 5870 5869 5868 5867 5865 5864 5862 5860 5858 5856 5854 5852 5851
5893 5893 5892 5891 5891 5890 5889 5888 5887 5886 5885 5884 5883 5882 5881 5880 5879 5878 5877 5876 5876 5875 5874 5873 5872 5871 5870 5869 5868 5867 5866 5865 5863 5862 5860 5859 5857 5855 5853 5850 5848 5847
5891 5890 5890 5889 5888 5888 5886 5885 5884 5883 5882 5880 5880 5879 5879 5877 5876 5875 5875 5874 5873 5873 5872 5871 5870 5869 5867 5866 5865 5864 5863 5862 5860 5858 5857 5855 5854 5852 5849 5847 5845 5843
5888 5888 5887 5886 5886 5885 5883 5882 5881 5880 5879 5878 5877 5877 5876 5875 5874 5873 5872 5872 5871 5870 5870 5869 5868 5866 5865 5863 5862 5861 5860 5858 5857 5855 5853 5851 5850 5848 5846 5844 5841 5840
5886 5885 5885 5884 5883 5882 5880 5879 5878 5877 5876 5875 5874 5874 5873 5872 5871 5870 5870 5869 5869 5868 5867 5866 5865 5863 5862 5860 5859 5857 5856 5854 5853 5851 5849 5847 5845 5843 5841 5839 5837 5835
5883 5882 5882 5881 5880 5878 5877 5876 5875 5873 5873 5873 5872 5871 5870 5869 5868 5868 5867 5866 5866 5865 5864 5863 5862 5861 5859 5858 5856 5854 5853 5851 5849 5847 5845 5843 5840 5838 5836 5835 5833 5831
5879 5879 5878 5877 5876 5875 5873 5872 5871 5870 5870 5870 5869 5868 5867 5866 5865 5865 5864 5863 5862 5861 5861 5860 5858 5857 5855 5853 5852 5850 5849 5848 5845 5843 5840 5838 5835 5833 5832 5830 5829 5827
5876 5875 5875 5874 5872 5871 5870 5869 5868 5867 5868 5868 5866 5865 5864 5863 5862 5862 5861 5860 5859 5858 5857 5856 5854 5853 5851 5849 5847 5846 5845 5843 5841 5839 5836 5833 5831 5829 5827 5826 5824 5822
5872 5871 5871 5870 5869 5867 5865 5864 5864 5864 5865 5865 5863 5862 5861 5860 5860 5859 5858 5857 5856 5855 5854 5852 5851 5849 5847 5845 5844 5843 5842 5840 5838 5836 5833 5830 5828 5826 5824 5821 5819 5817
5868 5867 5867 5866 5864 5863 5861 5860 5861 5861 5861 5862 5861 5859 5858 5857 5857 5856 5855 5854 5853 5852 5850 5849 5848 5846 5844 5842 5841 5840 5839 5837 5835 5832 5830 5827 5825 5822 5820 5817 5815 5813
5863 5862 5861 5860 5859 5858 5857 5857 5857 5858 5858 5859 5858 5856 5854 5854 5853 5852 5851 5851 5850 5848 5847 5846 5844 5843 5841 5839 5838 5837 5836 5834 5832 5829 5826 5824 5821 5819 5816 5813 5811 5809
5856 5853 5852 5853 5853 5853 5854 5854 5855 5855 5855 5855 5853 5852 5850 5850 5849 5848 5848 5847 5846 5845 5844 5842 5840 5839 5837 5835 5834 5833 5832 5830 5828 5825 5823 5821 5818 5815 5812 5809 5807 5805
5847 5847 5850 5851 5850 5851 5851 5852 5852 5851 5851 5850 5849 5848 5847 5846 5845 5844 5844 5844 5843 5841 5839 5837 5836 5834 5832 5831 5830 5829 5828 5826 5824 5822 5819 5817 5814 5811 5808 5805 5802 5800
5843 5847 5852 5852 5849 5848 5848 5847 5847 5846 5845 5845 5845 5844 5843 5842 5841 5840 5840 5840 5839 5837 5835 5833 5832 5830 5828 5826 5825 5824 5823 5822 5820 5817 5814 5812 5809 5806 5803 5800 5797 5796
5845 5847 5849 5848 5846 5844 5842 5842 5842 5840 5840 5841 5840 5839 5839 5839 5837 5836 5836 5835 5834 5833 5831 5829 5828 5826 5825 5823 5821 5819 5818 5817 5815 5812 5809 5806 5803 5800 5798 5795 5793 5791
5845 5845 5844 5841 5839 5838 5837 5837 5836 5836 5836 5836 5836 5835 5835 5834 5833 5832 5831 5830 5829 5828 5827 5825 5824 5822 5820 5819 5817 5815 5813 5811 5809 5806 5803 5800 5798 5795 5792 5790 5788 5787
5840 5840 5837 5834 5833 5833 5833 5832 5831 5832 5832 5832 5832 5831 5830 5829 5828 5827 5826 5825 5824 5823 5822 5821 5820 5818 5816 5814 5812 5810 5809 5807 5804 5801 5798 5795 5792 5790 5787 5785 5783 5782
5834 5833 5832 5832 5831 5830 5828 5827 5826 5827 5828 5828 5827 5827 5826 5825 5823 5822 5821 5820 5820 5819 5818 5817 5816 5814 5812 5810 5808 5806 5804 5802 5799 5796 5793 5790 5787 5784 5782 5780 5778 5776
5830 5829 5828 5828 5827 5825 5824 5823 5822 5822 5822 5822 5822 5822 5821 5820 5818 5817 5817 5816 5815 5815 5814 5813 5811 5809 5807 5805 5803 5801 5799 5797 5794 5791 5788 5785 5782 5779 5777 5775 5773 5771
5825 5824 5822 5822 5821 5820 5819 5818 5817 5817 5816 5816 5818 5818 5816 5814 5813 5812 5811 5811 5810 5810 5809 5807 5805 5803 5802 5800 5798 5796 5793 5791 5789 5786 5783 5780 5777 5774 5771 5769 5767 5764
5820 5819 5817 5815 5814 5814 5813 5812 5812 5811 5810 5811 5812 5812 5810 5809 5808 5807 5806 5806 5805 5805 5803 5802 5800 5798 5796 5794 5792 5790 5788 5786 5783 5781 5778 5775 5772 5769 5765 5762 5759 5757
5816 5814 5812 5809 5807 5807 5806 5806 5807 5806 5805 5806 5807 5806 5805 5804 5803 5802 5801 5801 5800 5799 5798 5797 5795 5792 5790 5788 5786 5784 5782 5780 5778 5775 5773 5770 5766 5763 5759 5755 5751 5749
5812 5811 5810 5807 5804 5802 5802 5802 5802 5802 5801 5803 5803 5802 5800 5799 5798 5797 5796 5796 5796 5794 5793 5791 5789 5786 5784 5782 5780 5778 5776 5774 5772 5770 5767 5764 5761 5758 5753 5749 5746 5743
5808 5807 5806 5805 5802 5799 5797 5797 5797 5797 5798 5799 5799 5798 5796 5795 5793 5792 5791 5791 5790 5789 5788 5786 5784 5781 5779 5777 5775 5773 5771 5769 5767 5764 5761 5759 5756 5752 5749 5747 5744 5739
5804 5802 5801 5800 5799 5796 5795 5794 5793 5792 5793 5794 5794 5793 5792 5790 5788 5787 5786 5785 5784 5784 5782 5780 5779 5777 5774 5772 5770 5768 5766 5764 5761 5757 5755 5754 5751 5748 5745 5743 5740 5736